sat.trackr.live / text

‹ back to catalog

STARLINK-11096 [DTC]

NORAD 59719 · 2024-088M

PAYLOAD ACTIVE UNKNOWN

§ Identity

Operator
Country
US
Launch date
2024-05-10
Launch site
AFWTR
Launch vehicle
Mass (kg)
RCS (m²)

Purposes: comms

External: N2YO · Heavens-Above · Gunter

§ Orbital elements

Epoch: 2026-09-21T21:29:14.454816Z

Period
91.74 min
Inclination
53.1598°
Eccentricity
0.0001115
Mean motion
15.69709432 rev/d
Perigee alt
359.0 km
Apogee alt
360.5 km
Semi-major
6,737.9 km
B*
8.9101e-6
RAAN
79.4035°
Arg perigee
96.5823°
Mean anomaly
263.5322°
Rev number
13,708

§ Raw data

STARLINK-11096 [DTC]1 59719U 24088M   26264.89530619  .00000491  00000+0  89101-5 0  99912 59719  53.1598  79.4035 0001115  96.5823 263.5322 15.69709432137081

JSON: /api/v1/satellites/59719 · /tle

For live sub-satellite position, see the globe view (requires WebGL).

§ Visibility from observer

Set your observer location to see the next 7 days of passes ≥ 10°. The values pass through the URL so the page stays shareable.

No JS? Fill the form by hand. The geolocation button needs JavaScript.